O3B FM14 (43233 NORAD) Tracking and Keplerian Element Data.

This shows tracking and keplerian element data for the satellite.

Feedback or suggestion? Click here.

NameO3B FM14
Epoch Orbit36
Epoch Day75.8571198
Epoch Year2018
Argument of Perigee207.6524
Mean Anonmoly231.0259
Mean Motion5.12607143
Decay Rate-2E-07
L11 43233U 18024C 18075.85711980 -.00000020 00000-0 00000-0 0 9993
L22 43233 0.0399 281.3822 0007066 207.6524 231.0259 5.12607143 369

Live tracking and technical data element details for O3B FM14 (NORAD 43233). O3B FM14 can be tracked NOW for your location showing map with azimuth and elevation plus other details from your city location.

Tracking and technical details about the satellite: track the satellite on the map from your city or location and see movement details for azimuth, elevation, latitude, longitude, range, height, and movement on the map or in text.

Es'hailsat 2 (coming in 2018)

IsCatalogInMostPopularTable: catalog: 43233, numindb: 6
Update: records affected: 1

GetName: 43233 O3B FM14

Hit Count: updated at: Thu, 22 Mar 2018 13:49:13 GMT